Flag for Senegal Weather past 2 weeks in Dakar, Senegal

Now
77 °F

Clear.


Feels Like: 79 °F
Forecast: N/A
Wind: 13 mph from North

Location: Dakar / Yoff

Current Time: Dec 27, 2014 at 8:03:36 PM

Latest Report: Dec 27, 2014 at 7:30 PM


Visibility: 5 mi

Pressure: 29.95 "Hg

Humidity: 47%

Dew point: 55 °F

Location of DakarLocation

Historic Weather in Dakar — Graph

°F

Dakar temperature yesterday

Maximum temperature yesterday: 91 °F (at 2:00 PM)
Minimum temperature yesterday: 73 °F (at 4:30 AM)
Average temperature yesterday: 81 °F

Past Weeks' High & Low Weather Summary

 TemperatureHumidityPressure
High91 °F (Dec 26, 2:00 PM)94% (Dec 23, 12:30 AM)30.07 "Hg (Dec 23, 12:30 AM)
Low68 °F (Dec 13, 8:00 AM)13% (Dec 13, 11:30 AM)29.86 "Hg (Dec 12, 7:00 PM)
Average74 °F54%29.95 "Hg
* Reported Dec 12 7:00 PM — Dec 27 7:00 PM, Dakar, Weather by CustomWeather, © 2014

Note: Actual official high and low records may vary slightly from our data, if they occured in-between our weather recording intervals... More about our weather records

Advertising

Dakar weather history for previous 24 hours

 ConditionsComfort  
Time TempWeatherWind HumidityBarometerVisibility
7:00 PM
Dec 27
77 °FClear.13 mph44%29.92 "Hg5 mi
6:30 PM77 °FClear.15 mph51%29.92 "Hg4 mi
6:00 PM77 °FClear.15 mph54%29.92 "Hg4 mi
5:30 PM79 °FClear.14 mph42%29.92 "Hg4 mi
5:00 PM81 °FClear.14 mph37%29.92 "Hg4 mi
4:30 PM81 °FClear.13 mph37%29.92 "Hg4 mi
4:00 PM81 °FClear.13 mph39%29.92 "Hg4 mi
3:30 PM82 °FClear.14 mph35%29.92 "Hg4 mi
3:00 PM82 °FClear.14 mph32%29.92 "Hg4 mi
2:30 PM84 °FClear.13 mph27%29.92 "Hg5 mi
2:00 PM86 °FSunny.13 mph25%29.92 "Hg10 mi
1:30 PM84 °FSunny.14 mph29%29.92 "Hg10 mi
1:00 PM84 °FSunny.14 mph27%29.95 "Hg10 mi
12:30 PM84 °FSunny.12 mph25%29.98 "Hg10 mi
12:00 PM82 °FSunny.12 mph30%29.98 "Hg10 mi
11:30 AM81 °FSunny.10 mph30%30.01 "Hg10 mi
11:00 AM81 °FSunny.9 mph32%30.01 "Hg10 mi
10:30 AM82 °FClear.12 mph19%30.01 "Hg5 mi
10:00 AM79 °FClear.13 mph23%30.01 "Hg5 mi
9:30 AM77 °FClear.10 mph24%30.01 "Hg5 mi
9:00 AM75 °FClear.12 mph24%30.01 "Hg5 mi
8:30 AM75 °FClear.10 mph25%29.98 "Hg6 mi
8:00 AM73 °FClear.9 mph25%29.98 "Hg6 mi
7:30 AM73 °FClear.8 mph27%29.98 "Hg6 mi
7:00 AM75 °FClear.8 mph25%29.98 "Hg10 mi
6:30 AM75 °FPassing clouds.8 mph25%29.95 "HgN/A
6:00 AM75 °FClear.8 mph27%29.95 "Hg10 mi
5:30 AM75 °FPassing clouds.8 mph31%29.95 "HgN/A
5:00 AM77 °FClear.8 mph32%29.95 "Hg10 mi
4:30 AM77 °FClear.8 mph32%29.95 "Hg10 mi
3:30 AM73 °FClear.7 mph61%29.95 "Hg10 mi
3:00 AM75 °FClear.5 mph44%29.95 "Hg10 mi
2:30 AM77 °FPassing clouds.6 mph42%29.95 "HgN/A
2:00 AM73 °FPassing clouds.5 mph57%29.95 "HgN/A
1:30 AM73 °FClear.7 mph69%29.95 "Hg10 mi
1:00 AM73 °FClear.9 mph74%29.95 "Hg10 mi
12:30 AM73 °FClear.8 mph74%29.95 "Hg10 mi
12:00 AM75 °FPassing clouds.9 mph69%29.98 "HgN/A
11:30 PM
Dec 26
75 °FClear.9 mph69%29.95 "Hg10 mi
11:00 PM75 °FClear.9 mph65%29.98 "Hg10 mi
10:30 PM79 °FClear.10 mph51%29.98 "Hg10 mi
10:00 PM79 °FClear.10 mph48%29.95 "Hg10 mi
9:30 PM79 °FClear.10 mph45%29.95 "Hg10 mi
9:00 PM79 °FClear.12 mph48%29.95 "Hg10 mi
8:30 PM81 °FClear.8 mph39%29.92 "Hg10 mi
8:00 PM82 °FClear.7 mph35%29.92 "Hg10 mi
Weather by CustomWeather, © 2014

See weather overviewHow to use our weather pages